Location: Carlisle
(34.5501°N, 84.5969°W)
Time: 06:58:03
(UTC+00:00)

Hubble Space Telescope - Visible Passes

Search period start: 30 November 2021 00:00
Search period end: 10 December 2021 00:00
Orbit: 534 x 538 km, 28.5° (Epoch: 29 November)

Date Brightness Start Highest point End Pass type
(mag) Time Alt. Az. Time Alt. Az. Time Alt. Az.
30 Nov 1.8 10:35:52 33° SSW 10:36:14 34° S 10:39:59 10° ESE visible
01 Dec 2.0 10:25:24 32° S 10:25:24 32° S 10:28:44 10° ESE visible
02 Dec 2.5 10:14:56 26° SSE 10:14:56 26° SSE 10:17:28 10° SE visible
02 Dec 3.0 11:52:04 10° WSW 11:54:28 15° SSW 11:56:52 10° SSE visible
03 Dec 3.0 10:04:28 20° SSE 10:04:28 20° SSE 10:06:09 10° SE visible
03 Dec 3.1 11:41:28 10° SW 11:43:12 12° SSW 11:44:57 10° S visible
04 Dec 3.5 09:54:01 14° SE 09:54:01 14° SE 09:54:47 10° SE visible
